ESEO
1 43792U 18099AL  24338.73370118  .00004114  00000-0  32408-3 0  9992
2 43792  97.4845  27.4259 0010131  78.2822 281.9539 15.01280227327623
CSIM
1 43793U 18099AM  24338.57249771  .00063557  00000-0  20651-2 0  9997
2 43793  97.5118  43.2803 0009125  79.9207 280.3063 15.31644882328546
JO-97
1 43803U 18099AX  24338.72473328  .00019341  00000-0  10702-2 0  9991
2 43803  97.4966  34.0933 0009722  81.4479 278.7854 15.13853204328282
Suomi 100
1 43804U 18099AY  24338.43117373  .00019119  00000-0  11004-2 0  9994
2 43804  97.5042  33.4910 0015314  81.9663 278.3304 15.12384006328207
ISAT
1 43879U 18111D   24338.26129063  .00028975  00000-0  13778-2 0  9991
2 43879  97.6062 243.9040 0012915 125.8999 234.3436 15.19074462325000
UWE-4
1 43880U 18111E   24338.46742947  .00026096  00000-0  13138-2 0  9999
2 43880  97.6001 243.6072 0015765 136.9371 223.3099 15.17068629325021
Sparrow
1 43881U 18111F   24338.49486850  .00032490  00000-0  15116-2 0  9994
2 43881  97.6180 246.4150 0008746 157.5454 202.6165 15.19845117325111
Prox-1
1 44339U 19036A   24338.64852681  .00019901  00000-0  29676-2 0  9994
2 44339  23.9959 210.2631 0007668  94.3922 265.7449 14.73308466290294
SONATE
1 44400U 19038Q   24338.55818264  .00059598  00000-0  10853-2 0  9997
2 44400  97.7124 341.8982 0010098 207.4011 152.6708 15.49238493300158
Taurus 1
1 44530U 19059C   24338.78458552  .00015938  00000-0  32658-2 0  9996
2 44530  98.5899 104.2142 0010654 252.2360 107.7677 14.60780500276478
Duchifat 3
1 44854U 19089C   24338.66948058  .00042370  00000-0  15160-2 0  9999
2 44854  36.9511  92.4273 0010568  78.2830 281.9106 15.27808851274024
TO-108
1 44881U 19093C   24338.79768773  .00002630  00000-0  31564-3 0  9994
2 44881  97.8141  52.2805 0015186 124.6850 235.5798 14.84777480268203
FloripaSat 1
1 44885U 19093G   24338.74691806  .00011559  00000-0  10731-2 0  9997
2 44885  97.8309  60.3949 0012153 111.9503 248.3010 14.94507535268658
RS-44
1 44909U 19096E   24338.53006990  .00000016  00000-0  20625-4 0  9999
2 44909  82.5218 352.2478 0217759  15.5888 345.1779 12.79736568230635
UPMSat 2
1 46276U 20061E   24338.73896668  .00045284  00000-0  92649-3 0  9993
2 46276  97.2746  44.0261 0000670 182.8514 177.2732 15.45987363236259
AmicalSat
1 46287U 20061R   24338.76550238  .00263258  00000-0  18730-2 0  9999
2 46287  97.3191  48.9227 0002620 285.9356  74.1620 15.73086149235823
SALSAT
1 46495U 20068K   24338.46506721  .00015691  00000-0  77452-3 0  9995
2 46495  97.8394 302.7568 0014917  91.4665 268.8276 15.17889340229945
IDEASSat
1 47458U 21006AX  24338.70457773  .01147462  72739-3  18162-2 0  9993
2 47458  97.2857  42.8436 0005323 296.0669  64.0063 16.03973554214993
CubeSX-Sirius-HSE
1 47951U 21022V   24338.79445924  .00063551  00000-0  14984-2 0  9995
2 47951  97.4404 238.1231 0006478 252.1728 107.8812 15.41663472204549
CubeSX-HSE
1 47952U 21022W   24338.79111835  .00061982  00000-0  14434-2 0  9993
2 47952  97.4400 238.2630 0006509 249.2645 110.7905 15.42043938204557
KSU-Cubesat
1 47954U 21022Y   24338.69871067  .00102472  00000-0  17599-2 0  9999
2 47954  97.4404 240.7684 0004206 223.6288 136.4632 15.50777683204429
GRBAlpha
1 47959U 21022AD  24338.81412471  .00065362  00000-0  15225-2 0  9998
2 47959  97.4400 238.4546 0006445 249.4962 110.5593 15.42021467203389
Orbicraft-Zorkiy
1 47960U 21022AE  24338.78463941  .00081988  00000-0  15848-2 0  9997
2 47960  97.4439 240.6229 0004566 239.9112 120.1686 15.47470850204187
TUBIN
1 48900U 21059X   24338.74483207  .00040924  00000-0  96856-3 0  9999
2 48900  97.6621 129.8155 0005237 204.5951 155.5046 15.41668360190936
LEDSAT
1 49069U 21073D   24338.77520754  .00045497  00000-0  12339-2 0  9997
2 49069  97.4171  49.8727 0015210  43.0046 317.2385 15.37371206182388
CUTE
1 49263U 21088D   24338.44801013  .00058698  00000-0  17974-2 0  9990
2 49263  97.4764  44.5355 0010760 200.1236 159.9583 15.33550878175443
TeikyoSat 4
1 49396U 21102B   24338.57003382  .00004605  00000-0  31822-3 0  9999
2 49396  97.4376  17.6702 0014605  62.0480 298.2224 15.06128431168238
Z-Sat
1 49399U 21102E   24338.80444768  .00009257  00000-0  54685-3 0  9995
2 49399  97.4084  19.9952 0020070  37.8135 322.4502 15.11545592168583
KOSEN 1
1 49402U 21102H   24338.57186698  .00012868  00000-0  67158-3 0  9990
2 49402  97.3998  21.9539 0017778  20.2920 339.9016 15.15923593168762
HO-113
1 50466U 21131B   24338.81318922  .00001722  00000-0  55723-3 0  9990
2 50466  98.5216  63.0951 0003813 353.9263   6.1878 14.40313933154410
IRIS-A
1 51044U 22002BN  24338.16887144  .00059261  00000-0  11641-2 0  9997
2 51044  97.3613  45.4304 0004893 143.3141 216.8444 15.47097741160399
Planetum 1
1 52738U 22057G   24334.51223436  .16479580  26697-5  24945-3 0  9995
2 52738  97.5508 111.5244 0009582 276.9617  83.0596 16.48177112140342
Foresail-1
1 52766U 22057AL  24338.32656304  .00066147  00000-0  12856-2 0  9999
2 52766  97.5978 109.6309 0007528 248.7222 111.3224 15.47360017140452
SNUGLITE 2
1 52899U 22065F   24338.37547280  .00003703  00000-0  74488-3 0  9991
2 52899  98.1419 116.6399 0007321 351.5845   8.5233 14.62157746128977
IO-117
1 53106U 22080B   24331.77042742 -.00000003  00000-0  00000-0 0  9997
2 53106  70.1300 136.0386 0008362  70.8561 289.3004  6.42557781 55710
FO-118
1 54684U 22167C   24338.77834020  .00128474  00000-0  18964-2 0  9992
2 54684  97.6149 130.2724 0008410 266.0930  93.9362 15.54873731110393
SSS-2B
1 56184U 23054G   24338.52581010  .00496911  00000-0  19005-2 0  9997
2 56184  97.3367 241.2550 0005065 105.9726 254.2103 15.86245659 92454
SO-120
1 56992U 23084BU  24338.80341135  .00154864  00000-0  21219-2 0  9998
2 56992  97.5375 102.8295 0004495 157.1681 202.9774 15.56836638 82267
MRC-100
1 56993U 23084BV  24338.80137728  .00331167  00000-0  25388-2 0  9994
2 56993  97.5344 104.5507 0001998 227.9981 132.1111 15.71108891 82385
UmKA 1 (RS40S)
1 57172U 23091G   24338.78798109  .00010581  00000-0  62640-3 0  9992
2 57172  97.5882  29.3268 0014204 260.9347  99.0276 15.11525620 79079
CubeBel-2 (EU11S)
1 57175U 23091K   24338.79429706  .00015584  00000-0  86874-3 0  9993
2 57175  97.5883  29.6138 0012338 272.7859  87.1960 15.13613753 79094
VERONIKA
1 58261U 23174F   24338.78411503  .00052080  00000-0  14938-2 0  9990
2 58261  97.4416  53.3041 0008994   4.5174 355.6149 15.35666949 59597
KAFASAT
1 58317U 23174BP  24338.78956616  .00090951  00000-0  18928-2 0  9993
2 58317  97.4344  55.1427 0007527 330.8766  29.2062 15.45259260 59739
ENSO
1 58470U 23185J   24338.79091190  .00043384  00000-0  12637-2 0  9992
2 58470  97.4040  44.7482 0010432  41.8025 318.4013 15.35213510 56040
EIRSAT-1
1 58472U 23185L   24338.82524952  .00049560  00000-0  13400-2 0  9996
2 58472  97.4029  45.1239 0009551  40.3936 319.8016 15.37516480 56074
SONATE-2
1 59112U 24043Q   24338.60709792  .00023496  00000-0  90335-3 0  9998
2 59112  97.4954 101.6353 0013600  62.6871 297.5751 15.26329029 41579
MO-122
1 60209U 24125G   24338.84811960  .00024495  00000-0  93414-3 0  9996
2 60209  97.2980 187.5698 0024858  86.3678 274.0403 15.26379234 23224
GRBBeta
1 60237U 24128C   24338.57230214  .00008576  00000-0  70206-3 0  9993
2 60237  61.9944  13.6460 0029707   9.7648 350.4013 14.99620411 21974
Curium One
1 60242U 24128H   24338.47041507  .00014283  00000-0  11410-2 0  9996
2 60242  61.9849  14.0885 0030026   1.3860 358.7307 15.00154952 21961
ROBUSTA-3A
1 60243U 24128J   24338.82665950  .00013511  00000-0  10893-2 0  9997
2 60243  61.9912  13.1538 0028111 358.9697   1.1330 14.99879659 22016
CatSat
1 60246U 24125J   24338.56608214  .00020175  00000-0  79899-3 0  9994
2 60246  97.2783 188.0965 0049688  42.8561 317.6532 15.24286879 21286
CosmoGirlSat
1 60953U 98067WT  24338.85356083  .01429044  12796-2  18966-2 0  9994
2 60953  51.6118 182.0994 0011109 246.5579 113.4266 16.06212729 15139
Sakura
1 60954U 98067WU  24334.01561250  .09108413  12187-4  11947-2 0  9993
2 60954  51.6047 205.2539 0008835 243.5267 116.4851 16.34683424 14392
CySat-1
1 61501U 98067WZ  24338.81812203  .00290080  00000-0  21147-2 0  9994
2 61501  51.6291 190.9785 0013033 234.2426 125.7361 15.71759818  8848
DORA
1 61502U 98067XA  24332.70883455  .05178733  11718-4  30558-2 0  9997
2 61502  51.5964 218.3602 0015234 210.2249 149.7891 16.17571853  7924
AO-123
1 99130U 20499A   24338.51046296 -.00104617  00000-0 -43462-2 0 00004
2 99130 097.3766 202.8571 0017868 136.5606 026.4732 15.23753284000019
